{"data":{"norad_id":41622,"intl_designator":"2016-041A","name":"MUOS-5","alt_names":[],"object_type":"PAYLOAD","status":"ACTIVE","operator":null,"country":"US","launch_date":"2016-06-24","launch_site_code":"AFETR","launch_vehicle":null,"mission":null,"orbit_class":"UNKNOWN","rcs_meters":14.2529,"size_class":null,"mass_kg":null,"dimensions":null,"purposes":["comms"],"wikipedia_slug":null,"has_3d_model":false,"image_url":null,"decayed_at":null,"tle_current":{"epoch":"2026-05-25T03:14:25.708128Z","epoch_age_seconds":70694,"freshness":"FRESH","line1":"1 41622U 16041A   26145.13501977 -.00000155  00000+0  00000+0 0  9998","line2":"2 41622   2.2517 301.2534 0195937 261.1252 343.8072  1.00268288 36859","mean_motion":1.00268288,"eccentricity":0.0195937,"inclination_deg":2.2517,"raan_deg":301.2534,"arg_perigee_deg":261.1252,"mean_anomaly_deg":343.8072,"bstar":0,"rev_number":3685,"period_min":1436.1469899636,"perigee_km":34961.393008131,"apogee_km":36613.757643324,"semimajor_km":42165.712325728,"source":"CELESTRAK","updated_at":"2026-05-25T13:38:14.005011Z"}}}